User: anonymous   Login
Location: �chenoz-la-M�line
(47.6009°N, 6.1354°E)
Time: 06:48:05
(UTC+00:00)
Language:

CZ-4B R/B - Orbit

View from above orbital plane
View from above orbital plane
View from above satellite
View from above satellite

Ground track
Ground track

The orbit data is extracted from the following two-line orbital elements,

1 37181U 10051C   21102.52945556  .00001022  00000-0  80425-4 0  9992
2 37181  97.7945  90.3561 0108303  32.6601  79.7534 14.98670779573907
Epoch (UTC): 12 April 2021 12:42:24
Eccentricity: 0.0108303
inclination: 97.7945°
perigee height: 496 km
apogee height: 646 km
right ascension of ascending node: 90.3561°
argument of perigee: 32.6601°
revolutions per day: 14.98670779
mean anomaly at epoch: 79.7534°
orbit number at epoch: 57390

The dashed part of the orbit path shows where the satellite is in the earth's shadow,  

DLR